IRIDIUM 120

Last updated on Fri Sep 11 2026 00:03:06 GMT+0000 (Coordinated Universal Time)

1 42805U 17039C 26253.49114731 .00000017 00000+0 -10789-5 0 9995 2 42805 86.3918 286.2953 0002062 90.1619 269.9813 14.34217652483409
UTC large
Height (km)
Speed (km/s)
/
Latitude / Longitude
Inclination (degrees)
Orbital Period (minutes)
Azimuth
Elevation
Range (km)
Doppler Factor

Next 0 passes for location: London (51.5072 / 0.1276)

No passes found over London.
IRIDIUM 120